Terminal Aerodrome Forecast
Issued by NWS Central Illinois

Home | Current Version | Previous Version | Text Only | Print | Product List | Glossary On
Versions: 1 2 3 4 5 6 7 8 9 10 11 12 13 14 15 16 17 18 19 20 21 22 23 24 25 26 27 28 29 30
000
FTUS43 KILX 290520
TAFPIA
TAF
KPIA 290520Z 2906/3006 VRB03KT P6SM FEW035 OVC060
     FM290800 34003KT 6SM BR BKN025
     FM291000 34003KT 3SM BR OVC008
     FM291500 03005KT 6SM HZ BKN015
     FM292100 07006KT P6SM BKN100
     FM300400 08013KT P6SM BKN100=

USA.gov is the U.S. government's official web portal to all federal, state and local government web resources and services.